Tracking 23610 objects as of 21-Sep-2021
HD Live streaming from Space Station
objects crossing your sky now

STARLINK-1736

Track STARLINK-1736 now!
10-day predictions
STARLINK-1736 is classified as:


NORAD ID: 46585
Int'l Code: 2020-070BF
Perigee: 553.7 km
Apogee: 555.0 km
Inclination: 53.1 °
Period: 95.6 minutes
Semi major axis: 6925 km
RCS: Unknown
Launch date: October 6, 2020
Source: United States (US)
Launch site: AIR FORCE EASTERN TEST RANGE (AFETR)
aabbcc
Your satellite tracking list
Your tracking list is empty




NASA's NSSDC Master Catalog

Two Line Element Set (TLE):
1 46585U 20070BF  21263.42156423  .00000642  00000-0  61971-4 0  9998
2 46585  53.0537 279.6776 0000894  84.8741 275.2350 15.06402053 53918
Source of the keplerian elements: AFSPC